| time (UTC) | temp F | wind direction | speed MPH | gust MPH | rain 1hr in | rain 24hr in | rain mn in | humidity % | barometer mb |
| 20260506110210 | 62 | 61 | 3.0 | 0.0 | 0.00 | 0.00 | 0.00 | 67 | 1003.5 |
| 20260506100213 | 58 | 38 | 3.0 | 0.0 | 0.00 | 0.00 | 0.00 | 74 | 1003.7 |
| 20260506093211 | 58 | 238 | 0.0 | 0.0 | 0.00 | 0.00 | 0.00 | 73 | 1004.0 |
| 20260506090211 | 58 | 275 | 3.0 | 0.0 | 0.00 | 0.00 | 0.00 | 75 | 1004.1 |
| 20260506083211 | 56 | 322 | 2.0 | 0.0 | 0.00 | 0.00 | 0.00 | 82 | 1003.9 |
| 20260506080212 | 55 | 318 | 3.0 | 0.0 | 0.00 | 0.00 | 0.00 | 86 | 1003.9 |
| 20260506073211 | 53 | 11 | 1.0 | 0.0 | 0.00 | 0.00 | 0.00 | 89 | 1004.2 |
| 20260506070212 | 52 | 5 | 2.0 | 0.0 | 0.00 | 0.00 | 0.00 | 91 | 1004.4 |
| 20260506060210 | 49 | 9 | 2.0 | 0.0 | 0.00 | 0.00 | 0.00 | 91 | 1004.0 |
| 20260506050211 | 47 | 194 | 0.0 | 0.0 | 0.00 | 0.00 | 0.00 | 89 | 1004.3 |
| 20260506043211 | 48 | 194 | 0.0 | 0.0 | 0.00 | 0.00 | 0.00 | 88 | 1004.5 |
| 20260506040211 | 48 | 194 | 0.0 | 0.0 | 0.00 | 0.00 | 0.00 | 88 | 1004.7 |
| 20260506033211 | 49 | 194 | 0.0 | 0.0 | 0.00 | 0.00 | 0.00 | 88 | 1004.9 |
| 20260506030212 | 49 | 194 | 0.0 | 0.0 | 0.00 | 0.00 | 0.00 | 88 | 1005.2 |
| 20260506023211 | 49 | 199 | 0.0 | 0.0 | 0.00 | 0.00 | 0.00 | 88 | 1005.4 |
| 20260506020212 | 49 | 198 | 0.0 | 0.0 | 0.00 | 0.00 | 0.00 | 88 | 1005.6 |
| 20260506013211 | 50 | 198 | 0.0 | 0.0 | 0.00 | 0.00 | 0.00 | 87 | 1005.8 |
| 20260506010212 | 50 | 199 | 5.0 | 0.0 | 0.00 | 0.00 | 0.00 | 87 | 1006.3 |
| 20260506003209 | 50 | 199 | 0.0 | 0.0 | 0.00 | 0.00 | 0.00 | 86 | 1006.1 |
| 20260506000211 | 50 | 199 | 1.0 | 0.0 | 0.00 | 0.00 | 0.00 | 86 | 1006.3 |
| 20260505233209 | 50 | 207 | 3.0 | 0.0 | 0.00 | 0.00 | 0.00 | 85 | 1006.5 |
| 20260505230209 | 51 | 188 | 5.0 | 0.0 | 0.00 | 0.00 | 0.00 | 84 | 1006.7 |
| 20260505223210 | 52 | 240 | 6.0 | 0.0 | 0.00 | 0.00 | 0.00 | 83 | 1006.7 |
| 20260505220209 | 53 | 240 | 7.0 | 0.0 | 0.00 | 0.00 | 0.00 | 82 | 1006.6 |
| 20260505213211 | 53 | 239 | 7.0 | 0.0 | 0.00 | 0.00 | 0.01 | 80 | 1006.7 |
| 20260505210215 | 54 | 227 | 8.0 | 0.0 | 0.00 | 0.00 | 0.01 | 80 | 1006.7 |
| 20260505203209 | 55 | 218 | 10.0 | 0.0 | 0.00 | 0.00 | 0.01 | 78 | 1006.5 |
| 20260505200210 | 55 | 295 | 13.0 | 0.0 | 0.00 | 0.00 | 0.01 | 77 | 1006.6 |
| 20260505193209 | 56 | 206 | 8.0 | 0.0 | 0.00 | 0.00 | 0.01 | 76 | 1006.5 |
| 20260505190215 | 58 | 240 | 10.0 | 0.0 | 0.00 | 0.00 | 0.01 | 77 | 1006.1 |
| 20260505183212 | 60 | 304 | 13.0 | 0.0 | 0.00 | 0.00 | 0.01 | 71 | 1005.5 |
| 20260505180211 | 61 | 263 | 10.0 | 0.0 | 0.00 | 0.00 | 0.01 | 66 | 1005.1 |
| 20260505173210 | 62 | 312 | 11.0 | 0.0 | 0.00 | 0.00 | 0.01 | 60 | 1005.0 |
| 20260505170210 | 64 | 313 | 8.0 | 0.0 | 0.00 | 0.00 | 0.01 | 56 | 1004.6 |
| 20260505163211 | 65 | 298 | 6.0 | 0.0 | 0.00 | 0.00 | 0.01 | 56 | 1004.6 |
| 20260505153210 | 64 | 200 | 5.0 | 0.0 | 0.00 | 0.00 | 0.01 | 64 | 1004.5 |
| 20260505150215 | 63 | 27 | 3.0 | 0.0 | 0.00 | 0.00 | 0.01 | 64 | 1004.6 |
| 20260505140210 | 61 | 315 | 10.0 | 0.0 | 0.00 | 0.00 | 0.01 | 71 | 1004.9 |
| 20260505130210 | 60 | 294 | 6.0 | 0.0 | 0.00 | 0.00 | 0.01 | 76 | 1004.9 |
| 20260505123210 | 61 | 331 | 8.0 | 0.0 | 0.00 | 0.00 | 0.01 | 73 | 1005.1 |
| 20260505120210 | 63 | 312 | 6.0 | 0.0 | 0.00 | 0.00 | 0.00 | 70 | 1005.1 |
| 20260505113210 | 64 | 224 | 5.0 | 0.0 | 0.00 | 0.00 | 0.00 | 65 | 1005.4 |